ATLAS 5 CENTAUR DEB, 53516

Orbit data source: Space-Track

ATLAS 5 CENTAUR DEB, 53516 is space debris in HEO originally from a launch on Wed, 17 Sep 2014 UTC launched from the Air Force Eastern Test Range (AFETR). Debris objects in space refer to the collection of defunct objects orbiting the Earth. Examples of debris include non-operational satellites, rocket bodies, and fragments generated from explosions, collisions, or faulty payload assembly.

Loading next visibility...
Identifier
53516, 2014-055DP
Orbit
HEO
Country
Flag of USUS
Related business
Flag of USUnited Launch Alliance/Lockheed Martin (US)
Manufacturer
Unknown
Mission
Spacecraft
Bus & Motor
Unknown
Mass
Unknown
Launch date (UTC)
2014-09-17 (12 years ago)
Launch vehicle
Unknown
Launch site
Air Force Eastern Test Range (AFETR)
Object type
Payload
Rocket body
Debris
Shape & HBR
Unknown shape, 1.1 m
Radar Cross Section
Medium (>0.1 m² and <1 m²)

Expand to show TLE details & history
Last TLE update: 3 days ago

TLE from 3 days ago
0 ATLAS 5 CENTAUR DEB
1 53516U 14055DP  26170.11967992 -.00000044  00000-0  00000-0 0  9994
2 53516  19.6983 155.7049 4762246 141.7365 264.2470  1.82544211 26110
Epoch: 2026-06-19T02:52Z
TLE epoch observation values (Epoch: 2026-06-19T02:52:20.345Z)
Latitude
-0.00002°
Longitude
-154.74595°
Altitude
28,522.104 km
Speed
2.958 km/s
True Right ascension
10h 22m 46s
True Declination
0° 00' 00"
Sunlit
Object was in daylight at epoch
Visualization orbit readout
Latitude
Unknown
Longitude
Unknown
Altitude
Unknown
Speed
Unknown
Apparent Right ascension
Unknown
Apparent Declination
Unknown
Sunlit
N/A
Visualization observer readout
Local Sidereal Time
21:41:57
Azimuth
Unknown
Elevation
Unknown
Doppler factor
Unknown
Orbital elements
Apogee altitude
35,373.325 km
Perigee altitude
8,435.59 km
Semi-major axis
28,282.594 km
Eccentricity
0.47622
Inclination
19.6983°
RAAN
155.7049°
Arg. of periapsis
141.7365°
True anomaly
218.31139°
Mean anomaly
264.247°
Eccentric anomaly
240.499°
Mean motion
0.45631 °/min
Orbital period
788.93 mins
BSTAR
0
Loading maneuver chart data...
Computing Atmospheric mass density...

Documentation

Showing up to 5 results
|